Weather in Castell-Platja d'Aro

Spain     41°48′51″N   3°01′52″E
temp.,
°C
wind,
m/s
gust,
m/s
humid.,
%
clouds,
%
prec.,
mm/h
press.,
hPa
HPBL,
m
14 april, wed
wed1423:00+10w2385100 0.0 1023146
02:00+10nw2284100 0.0 102257
05:00+9n237894 0.0 102297
08:00+9nne34705 0.0 1022181
11:00+13ne33495 0.0 1022892
14:00+14ene54499 0.0 10211045
17:00+13e444715 0.0 1020831
20:00+11e2256100 0.0 1020157
15 april, thu
thu1523:00+9nw226588 0.0 102161
02:00+8n336727 0.0 102171
05:00+7n45715 0.0 1020143
08:00+7n356933 0.0 1020148
11:00+12ne5649100 0.0 1020994
14:00+13ene6650100 0.0 10201093
17:00+13ene6649100 0.0 10181010
20:00+11nne3552100 0.0 1018361
16 april, fri
fri1623:00+8nnw496089 0.0 1018236
02:00+7nnw346164 0.0 1018117
05:00+7nnw366064 0.0 1017171
08:00+7n4769100 0.0 1017215
11:00+12ne574898 0.0 10171530
14:00+13ene564791 0.0 10161377
17:00+12ne574590 0.0 10161390
20:00+11nne4748100 0.0 1016669
17 april, sat
sat1723:00+9nnw3763100 0.0 1017352
02:00+8n4963100 0.0 1017493
05:00+8n51155100 0.0 1016650
08:00+7n3863100 0.0 1016349
11:00+13n81132100 0.0 10151518
14:00+16nne8103494 0.0 10151878
17:00+15nne8113748 0.0 10151273
20:00+13wsw144980 0.0 1015140
18 april, sun
sun1823:00+9nne2361100 0.0 1018109
02:00+8n566775 0.0 1019240
05:00+7n337156 0.0 101892
08:00+7n33695 0.0 101991
11:00+13wsw12450 0.0 1020811
14:00+15sw655151 0.0 10191190
17:00+14ssw546018 0.0 1019950
20:00+12sw57715 0.0 1019392